Fergus Falls, MN

4:23 PM CST on December 07, 2019 (GMT -0600)
Fergus Falls Municipal-Mickelson

Weather History for KFFM - October, 2019

Change the Weather History Date:

Wednesday, October 23, 2019

  Actual Average Record
Temperature  
Mean Temperature 32 °F -  
Max Temperature 37 °F 55 °F 80 °F (1992)
Min Temperature 26 °F 33 °F 19 °F (2018)
Degree Days  
Heating Degree Days 34    
Moisture  
Dew Point 29 °F    
Average Humidity 85    
Maximum Humidity 100    
Minimum Humidity 70    
Precipitation  
Precipitation 0.00 in - - ()
Sea Level Pressure  
Sea Level Pressure 29.94 in    
Wind  
Wind Speed 6 mph ()    
Max Wind Speed 14 mph    
Max Gust Speed 20 mph    
Visibility 10.0 miles    
Events      
Averages and records for this station are not official NWS values.
T = Trace of Precipitation, MM = Missing Value Source: Averaged Metar Reports

Daily Weather History Graph

Daily Weather History Graph

Search for Another Location

Airport or City:

Astronomy

Oct. 23, 2019 Rise Set
Actual Time 7:52 AM CDT 6:24 PM CDT
Civil Twilight 7:21 AM CDT 6:55 PM CDT
Nautical Twilight 6:46 AM CDT 7:30 PM CDT
Astronomical Twilight 6:12 AM CDT 8:04 PM CDT
Moon 1:47 AM CDT (10/23) 4:38 PM CDT (10/23)
Length of Visible Light 11h 33m
Length of Day
10h 31m
Waning Crescent, 26% of the Moon is Illuminated
Oct 23
Waning Crescent
Oct 27
New
Nov 4
First Quarter
Nov 12
Full
Nov 19
Last Quarter

Hourly Weather History & Observations

Time (CDT) Temp. Windchill Dew Point Humidity Pressure Visibility Wind Dir Wind Speed Gust Speed Precip Events Conditions
12:15 AM 33.8 °F 27.0 °F 28.4 °F 81% 29.73 in 10.0 mi NNW 8.1 mph - N/A   Clear
12:16 AM 33.8 °F 27.0 °F 28.4 °F 81% 29.73 in 10.0 mi NNW 8.1 mph - N/A   Clear
12:35 AM 32.0 °F 25.6 °F 28.4 °F 87% 29.73 in 10.0 mi NW 6.9 mph - N/A   Clear
12:40 AM 32.0 °F 24.8 °F 28.4 °F 87% 29.73 in 10.0 mi NW 8.1 mph - N/A   Clear
12:57 AM 32.0 °F 24.8 °F 28.4 °F 87% 29.73 in 10.0 mi NNW 8.1 mph - N/A   Clear
1:15 AM 30.2 °F 24.3 °F 28.4 °F 93% 29.73 in 10.0 mi WNW 5.8 mph - N/A   Clear
1:35 AM 30.2 °F 25.4 °F 28.4 °F 93% 29.74 in 10.0 mi WNW 4.6 mph - N/A   Clear
1:55 AM 30.2 °F 24.3 °F 28.4 °F 93% 29.75 in 10.0 mi WNW 5.8 mph - N/A   Scattered Clouds
2:18 AM 30.2 °F 25.4 °F 28.4 °F 93% 29.74 in 10.0 mi NW 4.6 mph - N/A   Scattered Clouds
2:56 AM 28.4 °F 23.3 °F 26.6 °F 93% 29.76 in 10.0 mi WNW 4.6 mph - N/A   Clear
3:15 AM 28.4 °F 23.3 °F 26.6 °F 93% 29.77 in 10.0 mi NW 4.6 mph - N/A   Clear
3:16 AM 28.4 °F 23.3 °F 26.6 °F 93% 29.77 in 10.0 mi NW 4.6 mph - N/A   Clear
3:35 AM 28.4 °F 23.3 °F 26.6 °F 93% 29.77 in 10.0 mi NW 4.6 mph - N/A   Clear
3:40 AM 28.4 °F 23.3 °F 26.6 °F 93% 29.77 in 10.0 mi NW 4.6 mph - N/A   Clear
3:57 AM 28.4 °F 23.3 °F 26.6 °F 93% 29.78 in 10.0 mi NW 4.6 mph - N/A   Clear
4:16 AM 28.4 °F 24.6 °F 26.6 °F 93% 29.79 in 10.0 mi West 3.5 mph - N/A   Clear
4:35 AM 28.4 °F - 26.6 °F 93% 29.79 in 10.0 mi Calm Calm - N/A   Clear
4:36 AM 28.4 °F - 26.6 °F 93% 29.79 in 10.0 mi Calm Calm - N/A   Clear
4:55 AM 28.4 °F 24.6 °F 26.6 °F 93% 29.80 in 10.0 mi NW 3.5 mph - N/A   Clear
4:56 AM 28.4 °F 24.6 °F 26.6 °F 93% 29.80 in 10.0 mi NW 3.5 mph - N/A   Clear
5:18 AM 28.4 °F - 26.6 °F 93% 29.79 in 10.0 mi Calm Calm - N/A   Clear
5:36 AM 28.4 °F - 26.6 °F 93% 29.80 in 10.0 mi Calm Calm - N/A   Clear
5:55 AM 28.4 °F 23.3 °F 26.6 °F 93% 29.82 in 10.0 mi WNW 4.6 mph - N/A   Clear
6:15 AM 26.6 °F 22.6 °F 26.6 °F 100% 29.82 in 10.0 mi West 3.5 mph - N/A   Clear
6:16 AM 26.6 °F - 26.6 °F 100% 29.82 in 10.0 mi Calm Calm - N/A   Clear
6:35 AM 26.6 °F 21.2 °F 24.8 °F 93% 29.83 in 10.0 mi WNW 4.6 mph - N/A   Clear
6:57 AM 26.6 °F 21.2 °F 26.6 °F 100% 29.83 in 10.0 mi WNW 4.6 mph - N/A   Clear
7:15 AM 26.6 °F - 26.6 °F 100% 29.83 in 10.0 mi Calm Calm - N/A   Clear
7:35 AM 26.6 °F 21.2 °F 24.8 °F 93% 29.84 in 10.0 mi NW 4.6 mph - N/A   Clear
7:36 AM 26.6 °F 21.2 °F 24.8 °F 93% 29.84 in 10.0 mi NW 4.6 mph - N/A   Clear
7:55 AM 26.6 °F 20.0 °F 24.8 °F 93% 29.84 in 10.0 mi NNW 5.8 mph - N/A   Clear
7:56 AM 26.6 °F 20.0 °F 24.8 °F 93% 29.84 in 10.0 mi NW 5.8 mph - N/A   Clear
8:18 AM 26.6 °F 21.2 °F 24.8 °F 93% 29.85 in 10.0 mi NW 4.6 mph - N/A   Clear
8:35 AM 26.6 °F 22.6 °F 26.6 °F 100% 29.86 in 10.0 mi WNW 3.5 mph - N/A   Clear
8:55 AM 28.4 °F 23.3 °F 28.4 °F 100% 29.86 in 10.0 mi NW 4.6 mph - N/A   Scattered Clouds
8:56 AM 28.4 °F 23.3 °F 28.4 °F 100% 29.86 in 10.0 mi NW 4.6 mph - N/A   Mostly Cloudy
9:15 AM 30.2 °F 26.7 °F 28.4 °F 93% 29.88 in 10.0 mi WNW 3.5 mph - N/A   Overcast
9:38 AM 30.2 °F 23.4 °F 28.4 °F 93% 29.89 in 10.0 mi NW 6.9 mph - N/A   Overcast
9:57 AM 30.2 °F 23.4 °F 30.2 °F 100% 29.90 in 10.0 mi NW 6.9 mph - N/A   Overcast
10:16 AM 32.0 °F 24.2 °F 30.2 °F 93% 29.89 in 10.0 mi NNW 9.2 mph - N/A   Overcast
10:35 AM 33.8 °F 27.0 °F 30.2 °F 87% 29.90 in 10.0 mi North 8.1 mph - N/A   Overcast
10:36 AM 33.8 °F 27.0 °F 30.2 °F 87% 29.90 in 10.0 mi North 8.1 mph - N/A   Overcast
10:55 AM 33.8 °F 25.8 °F 30.2 °F 87% 29.92 in 10.0 mi North 10.4 mph - N/A   Overcast
10:59 AM 33.8 °F 27.0 °F 30.2 °F 87% 29.92 in 10.0 mi NNW 8.1 mph - N/A   Overcast
11:17 AM 33.8 °F 25.3 °F 30.2 °F 87% 29.93 in 10.0 mi NNW 11.5 mph - N/A   Overcast
11:36 AM 33.8 °F 26.4 °F 30.2 °F 87% 29.94 in 10.0 mi NNW 9.2 mph - N/A   Overcast
11:55 AM 33.8 °F 25.8 °F 30.2 °F 87% 29.96 in 10.0 mi NW 10.4 mph - N/A   Overcast
12:15 PM 33.8 °F 25.8 °F 30.2 °F 87% 29.96 in 10.0 mi NW 10.4 mph - N/A   Overcast
12:16 PM 33.8 °F 26.4 °F 30.2 °F 87% 29.96 in 10.0 mi NW 9.2 mph - N/A   Overcast
12:39 PM 35.6 °F 27.1 °F 30.2 °F 81% 29.96 in 10.0 mi North 12.7 mph 17.3 mph N/A   Overcast
12:56 PM 35.6 °F 27.5 °F 30.2 °F 81% 29.96 in 10.0 mi NNW 11.5 mph - N/A   Overcast
1:16 PM 35.6 °F 28.0 °F 30.2 °F 81% 29.96 in 10.0 mi North 10.4 mph - N/A   Overcast
1:35 PM 35.6 °F 26.6 °F 32.0 °F 87% 29.97 in 10.0 mi North 13.8 mph 19.6 mph N/A   Overcast
1:36 PM 35.6 °F 27.1 °F 30.2 °F 81% 29.97 in 10.0 mi North 12.7 mph 19.6 mph N/A   Overcast
1:55 PM 35.6 °F 27.5 °F 30.2 °F 81% 29.97 in 10.0 mi North 11.5 mph 19.6 mph N/A   Overcast
1:59 PM 35.6 °F 28.0 °F 30.2 °F 81% 29.98 in 10.0 mi NNW 10.4 mph 18.4 mph N/A   Overcast
2:16 PM 35.6 °F 28.0 °F 30.2 °F 81% 29.98 in 10.0 mi NNW 10.4 mph 16.1 mph N/A   Overcast
2:36 PM 35.6 °F 28.0 °F 30.2 °F 81% 29.98 in 10.0 mi NNW 10.4 mph - N/A   Overcast
2:55 PM 35.6 °F 28.6 °F 30.2 °F 81% 29.99 in 10.0 mi NNW 9.2 mph - N/A   Overcast
2:56 PM 35.6 °F 29.2 °F 30.2 °F 81% 29.99 in 10.0 mi NNW 8.1 mph - N/A   Overcast
3:15 PM 35.6 °F 28.0 °F 30.2 °F 81% 30.00 in 10.0 mi NNW 10.4 mph - N/A   Overcast
3:37 PM 37.4 °F 29.3 °F 30.2 °F 75% 30.01 in 10.0 mi NW 12.7 mph 17.3 mph N/A   Overcast
3:56 PM 37.4 °F 30.3 °F 30.2 °F 75% 30.01 in 10.0 mi North 10.4 mph 16.1 mph N/A   Overcast
4:15 PM 37.4 °F 30.3 °F 30.2 °F 75% 30.02 in 10.0 mi North 10.4 mph 17.3 mph N/A   Overcast
4:16 PM 37.4 °F 30.3 °F 30.2 °F 75% 30.02 in 10.0 mi North 10.4 mph 17.3 mph N/A   Overcast
4:35 PM 37.4 °F 29.3 °F 30.2 °F 75% 30.03 in 10.0 mi North 12.7 mph 18.4 mph N/A   Overcast
4:36 PM 37.4 °F 29.3 °F 30.2 °F 75% 30.03 in 10.0 mi North 12.7 mph 18.4 mph N/A   Overcast
4:59 PM 37.4 °F 29.3 °F 30.2 °F 75% 30.04 in 10.0 mi NNW 12.7 mph 17.3 mph N/A   Overcast
5:16 PM 37.4 °F 30.8 °F 30.2 °F 75% 30.05 in 10.0 mi NNW 9.2 mph - N/A   Overcast
5:36 PM 37.4 °F 30.8 °F 30.2 °F 75% 30.06 in 10.0 mi NNW 9.2 mph 17.3 mph N/A   Overcast
5:55 PM 37.4 °F 32.1 °F 30.2 °F 75% 30.07 in 10.0 mi NNW 6.9 mph - N/A   Overcast
6:15 PM 37.4 °F 30.3 °F 30.2 °F 75% 30.08 in 10.0 mi NW 10.4 mph - N/A   Overcast
6:19 PM 37.4 °F 29.8 °F 30.2 °F 75% 30.08 in 10.0 mi NNW 11.5 mph - N/A   Overcast
6:37 PM 37.4 °F 29.8 °F 30.2 °F 75% 30.09 in 10.0 mi NW 11.5 mph - N/A   Overcast
6:55 PM 37.4 °F 30.8 °F 30.2 °F 75% 30.10 in 10.0 mi NNW 9.2 mph - N/A   Overcast
7:15 PM 37.4 °F 32.1 °F 30.2 °F 75% 30.11 in 10.0 mi NW 6.9 mph - N/A   Overcast
7:16 PM 37.4 °F 31.4 °F 30.2 °F 75% 30.11 in 10.0 mi NW 8.1 mph - N/A   Overcast
7:35 PM 37.4 °F 30.3 °F 30.2 °F 75% 30.12 in 10.0 mi NNW 10.4 mph - N/A   Overcast
7:58 PM 37.4 °F 30.8 °F 30.2 °F 75% 30.13 in 10.0 mi NW 9.2 mph - N/A   Overcast
8:17 PM 37.4 °F 29.8 °F 30.2 °F 75% 30.15 in 10.0 mi NW 11.5 mph - N/A   Overcast
8:36 PM 37.4 °F 28.9 °F 30.2 °F 75% 30.15 in 10.0 mi NNW 13.8 mph 18.4 mph N/A   Overcast
8:55 PM 37.4 °F 30.3 °F 28.4 °F 70% 30.16 in 10.0 mi North 10.4 mph - N/A   Overcast
9:15 PM 35.6 °F 28.6 °F 28.4 °F 75% 30.17 in 10.0 mi North 9.2 mph - N/A   Overcast
9:37 PM 35.6 °F 29.2 °F 28.4 °F 75% 30.17 in 10.0 mi North 8.1 mph - N/A   Overcast
9:56 PM 35.6 °F 29.2 °F 28.4 °F 75% 30.18 in 10.0 mi NNW 8.1 mph - N/A   Overcast
10:15 PM 35.6 °F 29.2 °F 28.4 °F 75% 30.18 in 10.0 mi NNW 8.1 mph - N/A   Overcast
10:16 PM 35.6 °F 29.2 °F 28.4 °F 75% 30.18 in 10.0 mi NNW 8.1 mph - N/A   Overcast
10:35 PM 35.6 °F 29.9 °F 28.4 °F 75% 30.19 in 10.0 mi NW 6.9 mph - N/A   Overcast
10:36 PM 35.6 °F 30.7 °F 28.4 °F 75% 30.19 in 10.0 mi NW 5.8 mph - N/A   Overcast
10:59 PM 33.8 °F 29.6 °F 26.6 °F 75% 30.19 in 10.0 mi WNW 4.6 mph - N/A   Scattered Clouds
11:16 PM 30.2 °F 26.7 °F 26.6 °F 86% 30.19 in 10.0 mi West 3.5 mph - N/A   Clear
11:35 PM 30.2 °F 25.4 °F 26.6 °F 86% 30.19 in 10.0 mi West 4.6 mph - N/A   Clear
11:55 PM 30.2 °F 26.7 °F 28.4 °F 93% 30.19 in 10.0 mi West 3.5 mph - N/A   Clear